Weather History for KP68 - May, 2013

Change the Weather History Date:

Tuesday, May 21, 2013

  Actual Average Record
Temperature  
Mean Temperature 59 °F 53 °F  
Max Temperature 80 °F 71 °F 88 °F (2012)
Min Temperature 38 °F 35 °F 25 °F (1983)
Degree Days  
Heating Degree Days 6 12  
Month to date heating degree days 250 304  
Since 1 July heating degree days 6664 7108  
Cooling Degree Days 0 0  
Month to date cooling degree days 1 0  
Year to date cooling degree days 1 0  
Growing Degree Days 9 (Base 50)    
Moisture  
Dew Point 19 °F    
Average Humidity 32    
Maximum Humidity 55    
Minimum Humidity 8    
Precipitation  
Precipitation 0.00 in 0.02 in 0.32 in (1991)
Month to date precipitation 0.50 0.51  
Year to date precipitation 2.98 4.01  
Sea Level Pressure  
Sea Level Pressure 29.74 in    
Wind  
Wind Speed 10 mph (SW)    
Max Wind Speed 40 mph    
Max Gust Speed 67 mph    
T = Trace of Precipitation, MM = Missing Value Source: NWS Daily Summary

Daily Weather History Graph

Daily Weather History Graph

Search for Another Location

Airport or City:

Trip Planner

Search our weather history database for the weather conditions in past years. The results will help you decide how hot, cold, wet, or windy it might be!

Date:

Astronomy

May. 21, 2013 Rise Set
Actual Time 5:24 AM PDT 7:57 PM PDT
Civil Twilight 4:53 AM PDT 8:28 PM PDT
Nautical Twilight 4:15 AM PDT 9:06 PM PDT
Astronomical Twilight 3:32 AM PDT 9:50 PM PDT
Moon 4:16 PM PDT (5/21) 2:54 AM PDT (5/21)
Length of Visible Light 15h 34m
Length of Day
14h 32m
Waxing Gibbous, 85% of the Moon is Illuminated
May 21
Waxing Gibbous
May 24
Full
May 31
Last Quarter
Jun 8
New
Jun 16
First Quarter

Hourly Weather History & Observations

Time (PDT) Temp. Windchill Dew Point Humidity Pressure Visibility Wind Dir Wind Speed Gust Speed Precip Events Conditions
12:53 AM 43.0 °F 38.2 °F 25.0 °F 49% 29.96 in - South 8.1 mph - N/A   Unknown
1:53 AM 41.0 °F 37.1 °F 26.1 °F 55% 29.94 in - South 5.8 mph - N/A   Unknown
2:53 AM 39.0 °F 32.8 °F 24.1 °F 55% 29.91 in - SSW 9.2 mph - N/A   Unknown
3:53 AM 39.9 °F 33.9 °F 24.1 °F 53% 29.90 in - SW 9.2 mph - N/A   Unknown
4:53 AM 39.0 °F 34.8 °F 23.0 °F 53% 29.88 in - SSW 5.8 mph - N/A   Unknown
5:53 AM 39.9 °F 34.5 °F 24.1 °F 53% 29.88 in - SSW 8.1 mph - N/A   Unknown
6:53 AM 45.0 °F 42.6 °F 23.0 °F 42% 29.86 in - SW 4.6 mph - N/A   Unknown
7:53 AM 53.1 °F - 25.0 °F 34% 29.84 in - Calm Calm - N/A   Unknown
8:53 AM 57.9 °F - 26.1 °F 30% 29.85 in - South 3.5 mph - N/A   Unknown
9:53 AM 62.1 °F - 23.0 °F 22% 29.83 in - South 3.5 mph - N/A   Unknown
10:53 AM 70.0 °F - 15.1 °F 12% 29.79 in - South 18.4 mph - N/A   Unknown
11:53 AM 75.0 °F - 14.0 °F 10% 29.73 in - SSW 16.1 mph 27.6 mph N/A   Unknown
12:53 PM 78.1 °F - 15.1 °F 9% 29.68 in - South 21.9 mph 29.9 mph N/A   Unknown
1:53 PM 79.0 °F - 16.0 °F 9% 29.66 in - SSW 25.3 mph 33.4 mph N/A   Unknown
2:53 PM 78.1 °F - 12.9 °F 8% 29.65 in - WSW 15.0 mph 26.5 mph N/A   Unknown
3:53 PM 77.0 °F - 12.0 °F 8% 29.61 in - West 13.8 mph 24.2 mph N/A   Unknown
4:53 PM 77.0 °F - 12.9 °F 9% 29.61 in - SW 11.5 mph 24.2 mph N/A   Unknown
5:53 PM 73.9 °F - 16.0 °F 11% 29.60 in - WNW 11.5 mph 24.2 mph N/A   Unknown
6:13 PM 72.0 °F - 21.0 °F 15% 29.78 in - South 11.5 mph 66.7 mph N/A   Unknown
6:53 PM 75.0 °F - 19.0 °F 12% 29.57 in - West 17.3 mph 21.9 mph N/A   Unknown
7:53 PM 70.0 °F - 16.0 °F 13% 29.57 in - WNW 18.4 mph 29.9 mph N/A   Unknown
8:53 PM 66.9 °F - 9.0 °F 10% 29.59 in - WNW 13.8 mph 28.8 mph N/A   Unknown
9:53 PM 60.1 °F - 18.0 °F 20% 29.62 in - Calm Calm - N/A   Unknown
10:53 PM 57.0 °F - 18.0 °F 22% 29.61 in - Calm Calm - N/A   Unknown
11:53 PM 52.0 °F - 18.0 °F 26% 29.61 in - NW 3.5 mph - N/A   Unknown